Regional Weather Roundup
Issued by NWS

Home | Current Version | Previous Version | Text Only | Print | Product List | Glossary On
Versions: 1 2 3 4 5 6 7 8 9 10 11 12 13 14 15 16 17 18 19 20 21 22 23 24 25 26 27 28 29 30 31 32 33 34 35 36 37 38 39 40 41 42 43 44 45 46 47 48 49 50
000
ASUS44 KLIX 100510
RWRLA
LOUISIANA WEATHER ROUNDUP
NATIONAL WEATHER SERVICE NEW ORLEANS LA
1200 AM CDT THU JUL 10 2014

NOTE: "FAIR" INDICATES FEW OR NO CLOUDS BELOW 12,000 FEET WITH NO
      SIGNIFICANT WEATHER AND/OR OBSTRUCTIONS TO VISIBILITY.
      SKY/WX - SKY CONDITION AND SIGNIFICANT WEATHER.
      TMP - AIR TEMPERATURE.    DP   - DEWPOINT TEMPERATURE.
      RH  - RELATIVE HUMIDITY.  PRES - PRESSURE.
      HX  - HEAT INDEX.         WCI  - WIND CHILL INDEX.

*  THESE STATIONS ARE NOT NWS OR FAA STATIONS AND ARE NOT UNDER
   NWS QUALITY CONTROL.

LAZ040-048-061>063-065-066-069-100600-
SOUTHEAST LOUISIANA

CITY           SKY/WX    TMP DP  RH WIND       PRES   REMARKS
N.O. AUDUBON     N/A     75  73  92 MISG        N/A
N.O. INTL ARPT MOCLDY    75  71  87 S6        30.07S
N.O. LAKEFRONT PTCLDY    76  72  87 S5        30.07S
N.O. DOWNTOWN* FAIR      77  70  78 S3        30.08R
SLIDELL        NOT AVBL
BATON ROUGE    NOT AVBL
BOOTHVILLE     CLOUDY    81  74  79 SW3       30.08S
BELLE CHASSE   PTCLDY    73  70  90 W3        30.07R
BOGALUSA*      FAIR      75  71  86 SW3       30.08S
GALLIANO*      NOT AVBL
NEW ROADS*     FAIR      73  72  98 CALM      30.07R
GONZALES*      FAIR      71  71 100 CALM      30.06S
HAMMOND*       PTCLDY    73  70  88 CALM      30.08S
HOUMA*         CLEAR     72  69  90 CALM      30.07S
PORT FOURCHON* CLEAR     82  77  83 CALM      30.08F

$$

LAZ041-044-053-054-100600-
SOUTHWEST LOUISIANA

CITY           SKY/WX    TMP DP  RH WIND       PRES   REMARKS
LAKE CHARLES   CLEAR     81  75  82 SW5       30.04R
LAFAYETTE      PTCLDY    75  73  93 CALM      30.06R
PATTERSON      CLEAR     72  72 100 CALM      30.10S
SALT POINT       N/A     79  75  87 CALM      30.06R
NEW IBERIA     NOT AVBL
CHENAULT AIRPK PTCLDY    82  74  74 SW6       30.06R

$$

LAZ027-028-100600-
CENTRAL LOUISIANA

CITY           SKY/WX    TMP DP  RH WIND       PRES   REMARKS
FORT POLK      CLEAR     79  73  82 S5        30.04S
ALEXANDRIA INT CLEAR     75  72  90 SE5       30.02R
ALEXANDRIA     NOT AVBL

$$

LAZ001-002-100600-
NORTHWEST LOUISIANA

CITY           SKY/WX    TMP DP  RH WIND       PRES   REMARKS
SHREVEPORT     PTCLDY    82  73  74 S6        30.00S
BARKSDALE AFB  CLEAR     78  73  83 S6        30.00S
DTN SHREVEPORT CLEAR     82  71  69 S6        30.00S

$$

LAZ014-016-100600-
NORTHEAST LOUISIANA

CITY           SKY/WX    TMP DP  RH WIND       PRES   REMARKS
MONROE         PTCLDY    74  71  91 CALM      30.04S
TALLULAH       PTCLDY    72  70  93 CALM      30.04S FOG

$$




USA.gov is the U.S. government's official web portal to all federal, state and local government web resources and services.